Regional Weather Roundup
Issued by NWS Jackson, KY

Home | Current Version | Previous Version | Graphics & Text | Print | Product List | Glossary On
Versions: 1 2 3 4 5 6 7 8 9 10 11 12 13 14 15 16 17 18 19 20 21 22 23 24 25 26 27
000
ASUS43 KJKL 220110
RWRJKL

EAST KENTUCKY HOURLY WEATHER ROUNDUP
NATIONAL WEATHER SERVICE JACKSON KY
800 PM EST TUE NOV 21 2017

NOTE: "FAIR" INDICATES FEW OR NO CLOUDS BELOW 12,000 FEET WITH
NO SIGNIFICANT WEATHER AND/OR OBSTRUCTIONS TO VISIBILITY.

* THESE REPORTS ARE NOT UNDER NWS QUALITY CONTROL AND MAY NOT
  REPORT WEATHER SUCH AS PRECIPITATION AND FOG.

KYZ079-080-083-085-087-088-110-112-115-119-120-220200
...EASTERN KENTUCKY...

CITY           SKY/WX    TMP DP  RH WIND       PRES   REMARKS
JACKSON        CLOUDY    55  39  54 NW9       29.99R
LONDON         CLOUDY    53  39  59 W6        30.01R
SOMERSET*      PTCLDY    50  30  46 W6        30.04R
MONTICELLO*    CLEAR     42  34  73 W8        30.05R
WILLIAMSBURG*  MOCLDY    55  48  76 SW6       30.02R
MIDDLESBORO*   PTCLDY    47  45  93 CALM      30.02S
HARLAN APT*    CLOUDY    57  45  62 CALM      30.01S
PIKE CO APT*   CLOUDY    57  45  64 S6        29.99R
BIG SANDY APT* CLEAR     58  46  65 SW7       29.99R
MOREHEAD APT*  CLEAR     52  27  37 W6        30.01R
$$

KYZ035-036-041-042-044-050-067-078-099-220200
...CENTRAL KENTUCKY...

CITY           SKY/WX    TMP DP  RH WIND       PRES   REMARKS
MT STERLING*   CLEAR     46  30  53 NW9       30.02R
DANVILLE*      PTCLDY    46  28  49 W6        30.03R
LEXINGTON      PTCLDY    49  29  46 W8        30.01R
FRANKFORT      MOCLDY    47  29  49 SW7       30.00R
LOUISVILLE     MOCLDY    52  33  48 W8        30.01R
LEBANON*         N/A     48  28  46 SW5       30.03R
GLASGOW*       PTCLDY    42  31  67 CALM      30.04R
BOWLING GREEN  CLEAR     50  32  50 W5        30.05R
$$

KYZ091>093-OHZ055-061-077-WVZ005-015-034-035-042-220200
...SOUTHERN OHIO/WEST VIRGINIA...

CITY           SKY/WX    TMP DP  RH WIND       PRES   REMARKS
COVINGTON      CLOUDY    48  35  60 W7        29.99R
COLUMBUS       CLOUDY    50  32  50 SW6       29.94R
DAYTON         CLOUDY    46  37  71 NW15      29.99R
WILMINGTON     PTCLDY    47  32  56 W8        29.96R
HUNTINGTON     CLOUDY    56  32  40 W9        29.96R
CHARLESTON     MOCLDY    56  40  55 S6        29.96R
PINEVILLE*     MOCLDY    47  41  81 MISG      30.05S
BECKLEY        MOCLDY    50  38  63 SE5       30.01R
BLUEFIELD      CLOUDY    52  41  66 VRB6      30.03S
LOGAN CO APT*    N/A     57  43  58 CALM      29.98R
$$

VAZ002-007-008-TNZ017-027-036-066-071-220200
...SOUTHWEST VIRGINIA/EAST TENNESSEE...

CITY           SKY/WX    TMP DP  RH WIND       PRES   REMARKS
WISE*          CLEAR     46  41  81 SW5       30.04R
JONESVILLE*      N/A     48  45  87 CALM      30.05R
ABINGDON*      PTCLDY    48  42  79 N3        30.02S
BRISTOL        MOCLDY    48  43  82 CALM      30.02R
MORRISTOWN*    CLOUDY    52  45  76 CALM      30.03R
SEVIERVILLE*   CLOUDY    46  43  87 CALM      30.02R
KNOXVILLE      CLOUDY    53  50  89 CALM      30.02R
LAFOLLETTE*    PTCLDY    59  48  67 SW6G14    30.04S
OAK RIDGE      PTCLDY    51  47  86 CALM      30.03R
CROSSVILLE     CLOUDY    51  46  83 W3        30.04R
NASHVILLE      CLOUDY    48  30  49 CALM      30.06R
$$

...KEY TO REMARKS...
VSB - VISIBILITY IN MILES
WCI - WIND CHILL INDEX
HX  - HEAT INDEX

$$




USA.gov is the U.S. government's official web portal to all federal, state and local government web resources and services.